﻿_id,日時,平均風速(m/s),平均風向,最大瞬間風速(m/s),最大風速時風向,気温(℃),湿度(%),10分間移動積算雨量(mm),1時間移動積算雨量(mm),日雨量(mm),累計雨量(mm),日射(日積算)(MJ/m2),日照(日積算)(min),現地気圧(hPa),海面気圧(hPa)
1,2021-01-04T00:00:00,0.2,静穏,0.7,西南西,0.3,91.1,0,0,0,0,7.21,264,1014.6,1029.4
2,2021-01-04T00:01:00,0.2,静穏,0.9,西,0.2,90.4,0,0,0,0,0,0,1014.6,1029.4
3,2021-01-04T00:02:00,0.3,北北西,1.3,西,0.2,90.5,0,0,0,0,0,0,1014.6,1029.4
4,2021-01-04T00:03:00,0.3,北北西,1.3,西,0.1,90.3,0,0,0,0,0,0,1014.6,1029.4
5,2021-01-04T00:04:00,0.4,北西,1.3,西,0.2,90.6,0,0,0,0,0,0,1014.6,1029.4
6,2021-01-04T00:05:00,0.4,西北西,1.3,西,0,90.3,0,0,0,0,0,0,1014.6,1029.4
7,2021-01-04T00:06:00,0.4,西北西,1.3,西,0.2,90.5,0,0,0,0,0,0,1014.6,1029.4
8,2021-01-04T00:07:00,0.4,西,1.3,西,0.1,90.9,0,0,0,0,0,0,1014.6,1029.4
9,2021-01-04T00:08:00,0.4,西,1.3,西,0,90.8,0,0,0,0,0,0,1014.6,1029.4
10,2021-01-04T00:09:00,0.3,西南西,1.3,西,0,90.7,0,0,0,0,0,0,1014.6,1029.4
11,2021-01-04T00:10:00,0.3,南西,1.3,西,0.1,91,0,0,0,0,0,0,1014.5,1029.3
12,2021-01-04T00:11:00,0.3,南西,1.3,西,0.2,91.4,0,0,0,0,0,0,1014.6,1029.4
13,2021-01-04T00:12:00,0.2,静穏,1.2,西,0.3,91.5,0,0,0,0,0,0,1014.6,1029.4
14,2021-01-04T00:13:00,0.2,静穏,1,西南西,0.4,91.9,0,0,0,0,0,0,1014.7,1029.5
15,2021-01-04T00:14:00,0.1,静穏,0.7,南西,0.2,91.4,0,0,0,0,0,0,1014.6,1029.4
16,2021-01-04T00:15:00,0.1,静穏,0.7,南西,0.2,91.2,0,0,0,0,0,0,1014.6,1029.4
17,2021-01-04T00:16:00,0.1,静穏,0.7,南西,0.1,91,0,0,0,0,0,0,1014.7,1029.5
18,2021-01-04T00:17:00,0.1,静穏,0.7,南西,0.2,91.2,0,0,0,0,0,0,1014.7,1029.5
19,2021-01-04T00:18:00,0.1,静穏,0.7,南西,0.3,91.4,0,0,0,0,0,0,1014.7,1029.5
20,2021-01-04T00:19:00,0.1,静穏,0.7,南西,0.2,91.3,0,0,0,0,0,0,1014.6,1029.4
21,2021-01-04T00:20:00,0.1,静穏,0.7,南西,0.1,91.2,0,0,0,0,0,0,1014.6,1029.4
22,2021-01-04T00:21:00,0.1,静穏,0.7,南西,0.2,91.2,0,0,0,0,0,0,1014.6,1029.4
23,2021-01-04T00:22:00,0.1,静穏,0.7,南南西,0.5,91.8,0,0,0,0,0,0,1014.7,1029.5
24,2021-01-04T00:23:00,0.1,静穏,0.7,南南西,0.5,91.9,0,0,0,0,0,0,1014.7,1029.5
25,2021-01-04T00:24:00,0.2,静穏,1.2,南西,0.4,91.8,0,0,0,0,0,0,1014.7,1029.5
26,2021-01-04T00:25:00,0.2,静穏,1.2,南西,0.6,92,0,0,0,0,0,0,1014.8,1029.6
27,2021-01-04T00:26:00,0.3,南西,1.2,南西,0.1,91.3,0,0,0,0,0,0,1014.8,1029.6
28,2021-01-04T00:27:00,0.4,南西,1.3,南西,0.1,90.2,0,0,0,0,0,0,1014.7,1029.5
29,2021-01-04T00:28:00,0.5,南西,1.3,南西,0.2,90.6,0,0,0,0,0,0,1014.7,1029.5
30,2021-01-04T00:29:00,0.6,南西,1.4,南南西,0.2,91,0,0,0,0,0,0,1014.6,1029.4
31,2021-01-04T00:30:00,0.7,南西,1.4,南南西,0.3,91.3,0,0,0,0,0,0,1014.5,1029.3
32,2021-01-04T00:31:00,0.7,南西,1.4,南南西,0.4,91.4,0,0,0,0,0,0,1014.5,1029.3
33,2021-01-04T00:32:00,0.7,南西,1.4,南南西,0.5,91.3,0,0,0,0,0,0,1014.5,1029.3
34,2021-01-04T00:33:00,0.8,南西,1.4,南南西,0.7,92.1,0,0,0,0,0,0,1014.6,1029.4
35,2021-01-04T00:34:00,0.7,南西,1.4,南南西,0.6,91.8,0,0,0,0,0,0,1014.6,1029.4
36,2021-01-04T00:35:00,0.7,南西,1.4,南南西,0.3,91.2,0,0,0,0,0,0,1014.6,1029.4
37,2021-01-04T00:36:00,0.7,西南西,1.4,南南西,0.2,90.3,0,0,0,0,0,0,1014.6,1029.4
38,2021-01-04T00:37:00,0.7,西南西,1.6,西北西,0.2,90.3,0,0,0,0,0,0,1014.6,1029.4
39,2021-01-04T00:38:00,0.7,西南西,1.6,西北西,0.2,90.3,0,0,0,0,0,0,1014.6,1029.4
40,2021-01-04T00:39:00,0.7,西,1.6,西北西,0.3,90.6,0,0,0,0,0,0,1014.6,1029.4
41,2021-01-04T00:40:00,0.6,西,1.6,西北西,0.2,90.4,0,0,0,0,0,0,1014.6,1029.4
42,2021-01-04T00:41:00,0.6,西,1.6,西北西,0.2,90.3,0,0,0,0,0,0,1014.7,1029.5
43,2021-01-04T00:42:00,0.7,西北西,1.6,西北西,0.1,90.3,0,0,0,0,0,0,1014.7,1029.5
44,2021-01-04T00:43:00,0.7,西北西,1.6,西北西,0,90,0,0,0,0,0,0,1014.7,1029.5
45,2021-01-04T00:44:00,0.7,西北西,1.6,西北西,0,90,0,0,0,0,0,0,1014.7,1029.5
46,2021-01-04T00:45:00,0.7,西北西,1.6,西北西,0,90.1,0,0,0,0,0,0,1014.7,1029.5
47,2021-01-04T00:46:00,0.7,西北西,1.6,西北西,0,90,0,0,0,0,0,0,1014.7,1029.5
48,2021-01-04T00:47:00,0.6,西北西,1.3,西,0,90.4,0,0,0,0,0,0,1014.7,1029.5
49,2021-01-04T00:48:00,0.5,西北西,1,西北西,0,90.6,0,0,0,0,0,0,1014.7,1029.5
50,2021-01-04T00:49:00,0.4,西北西,1,西北西,0.1,90.7,0,0,0,0,0,0,1014.7,1029.5
51,2021-01-04T00:50:00,0.4,西北西,1,西北西,0.1,90.9,0,0,0,0,0,0,1014.7,1029.5
52,2021-01-04T00:51:00,0.4,西北西,1,西北西,0.1,91,0,0,0,0,0,0,1014.7,1029.5
53,2021-01-04T00:52:00,0.5,西北西,1.2,西,0,90.6,0,0,0,0,0,0,1014.8,1029.6
54,2021-01-04T00:53:00,0.5,西北西,1.5,西,0.3,91.1,0,0,0,0,0,0,1014.8,1029.6
55,2021-01-04T00:54:00,0.5,西北西,1.5,西,0.1,91.2,0,0,0,0,0,0,1014.7,1029.5
56,2021-01-04T00:55:00,0.6,西北西,1.5,西,0.1,90.7,0,0,0,0,0,0,1014.7,1029.5
57,2021-01-04T00:56:00,0.7,西北西,1.5,西,0,90.7,0,0,0,0,0,0,1014.6,1029.4
58,2021-01-04T00:57:00,0.8,西,1.5,西,0.1,90.8,0,0,0,0,0,0,1014.6,1029.4
59,2021-01-04T00:58:00,0.9,西,1.5,西,0,90.8,0,0,0,0,0,0,1014.6,1029.4
60,2021-01-04T00:59:00,1,西,1.5,西,0,90.5,0,0,0,0,0,0,1014.5,1029.3
61,2021-01-04T01:00:00,1,西,1.5,西,0,90.3,0,0,0,0,0,0,1014.5,1029.3
62,2021-01-04T01:01:00,1,西,1.5,西,-0.1,90.3,0,0,0,0,0,0,1014.6,1029.4
63,2021-01-04T01:02:00,1,西,1.5,西,-0.1,90.5,0,0,0,0,0,0,1014.6,1029.4
64,2021-01-04T01:03:00,0.9,西,1.5,西,0,90.8,0,0,0,0,0,0,1014.6,1029.4
65,2021-01-04T01:04:00,0.9,西,1.5,西,0,90.9,0,0,0,0,0,0,1014.6,1029.4
66,2021-01-04T01:05:00,0.8,西,1.4,西,0,91,0,0,0,0,0,0,1014.6,1029.4
67,2021-01-04T01:06:00,0.6,西,1.4,西,0,90.9,0,0,0,0,0,0,1014.7,1029.5
68,2021-01-04T01:07:00,0.5,西北西,1.4,西,0,91.1,0,0,0,0,0,0,1014.7,1029.5
69,2021-01-04T01:08:00,0.4,西北西,1.3,西,0,91.3,0,0,0,0,0,0,1014.7,1029.5
70,2021-01-04T01:09:00,0.4,西北西,1.1,西,0,91.1,0,0,0,0,0,0,1014.8,1029.6
71,2021-01-04T01:10:00,0.4,西北西,0.9,西北西,0,91.4,0,0,0,0,0,0,1014.8,1029.6
72,2021-01-04T01:11:00,0.4,西北西,0.9,西北西,0,91.3,0,0,0,0,0,0,1014.8,1029.6
73,2021-01-04T01:12:00,0.4,西北西,0.9,西北西,-0.1,91.3,0,0,0,0,0,0,1014.8,1029.6
74,2021-01-04T01:13:00,0.4,西,0.9,西北西,0,91.1,0,0,0,0,0,0,1014.8,1029.6
75,2021-01-04T01:14:00,0.4,西,1,南南西,0,91.8,0,0,0,0,0,0,1014.8,1029.6
76,2021-01-04T01:15:00,0.4,西,1,南南西,0,91.4,0,0,0,0,0,0,1014.8,1029.6
77,2021-01-04T01:16:00,0.5,西南西,1.1,南南西,0,91.2,0,0,0,0,0,0,1014.8,1029.6
78,2021-01-04T01:17:00,0.6,西南西,1.3,南南西,0,91.3,0,0,0,0,0,0,1014.8,1029.6
79,2021-01-04T01:18:00,0.7,南西,1.3,南南西,0,91.5,0,0,0,0,0,0,1014.8,1029.6
80,2021-01-04T01:19:00,0.7,南西,1.3,南南西,0,91.4,0,0,0,0,0,0,1014.8,1029.6
81,2021-01-04T01:20:00,0.7,南西,1.3,南南西,0,91.6,0,0,0,0,0,0,1014.8,1029.6
82,2021-01-04T01:21:00,0.8,南南西,1.3,南南西,0,91.9,0,0,0,0,0,0,1014.8,1029.6
83,2021-01-04T01:22:00,0.8,南南西,1.3,南南西,0,92,0,0,0,0,0,0,1014.8,1029.6
84,2021-01-04T01:23:00,0.7,南西,1.3,南南西,0,91.9,0,0,0,0,0,0,1014.7,1029.5
85,2021-01-04T01:24:00,0.7,南西,1.3,南南西,0.2,92.1,0,0,0,0,0,0,1014.8,1029.6
86,2021-01-04T01:25:00,0.7,南西,1.4,西,0.1,92.1,0,0,0,0,0,0,1014.8,1029.6
87,2021-01-04T01:26:00,0.7,南西,1.4,西,0.1,91.9,0,0,0,0,0,0,1014.8,1029.6
88,2021-01-04T01:27:00,0.7,西南西,1.4,西,0.2,92.2,0,0,0,0,0,0,1014.8,1029.6
89,2021-01-04T01:28:00,0.7,西南西,1.4,西,0.4,92.4,0,0,0,0,0,0,1014.9,1029.7
90,2021-01-04T01:29:00,0.6,西南西,1.4,西,0.1,92.2,0,0,0,0,0,0,1014.9,1029.7
91,2021-01-04T01:30:00,0.6,西,1.4,西,0,91.3,0,0,0,0,0,0,1014.9,1029.7
92,2021-01-04T01:31:00,0.7,西,1.5,西,0,91.2,0,0,0,0,0,0,1014.9,1029.7
93,2021-01-04T01:32:00,0.7,西,1.5,西,0,91.2,0,0,0,0,0,0,1014.9,1029.7
94,2021-01-04T01:33:00,0.8,西,1.5,西,0,91.1,0,0,0,0,0,0,1014.9,1029.7
95,2021-01-04T01:34:00,0.8,西,1.5,西,0.1,91.2,0,0,0,0,0,0,1014.9,1029.7
96,2021-01-04T01:35:00,0.7,西南西,1.5,西,0.1,91.5,0,0,0,0,0,0,1014.9,1029.7
97,2021-01-04T01:36:00,0.6,西,1.5,西,0.2,91.3,0,0,0,0,0,0,1015,1029.8
98,2021-01-04T01:37:00,0.6,西,1.5,西,0,91.3,0,0,0,0,0,0,1015,1029.8
99,2021-01-04T01:38:00,0.5,西北西,1.5,西,0.1,91.2,0,0,0,0,0,0,1015,1029.8
100,2021-01-04T01:39:00,0.5,西北西,1.5,西,0.1,91,0,0,0,0,0,0,1015.1,1029.9
101,2021-01-04T01:40:00,0.4,西北西,1.5,西,0,90.9,0,0,0,0,0,0,1015.1,1029.9
102,2021-01-04T01:41:00,0.3,北西,1.5,西,0.1,91,0,0,0,0,0,0,1015,1029.8
103,2021-01-04T01:42:00,0.3,北西,1.1,西,0.1,90.9,0,0,0,0,0,0,1015.1,1029.9
104,2021-01-04T01:43:00,0.3,北西,1,南西,0.1,90.7,0,0,0,0,0,0,1015.1,1029.9
105,2021-01-04T01:44:00,0.3,北西,1,南西,0,90.6,0,0,0,0,0,0,1015.1,1029.9
106,2021-01-04T01:45:00,0.3,北西,1,南西,0,90.4,0,0,0,0,0,0,1015.1,1029.9
107,2021-01-04T01:46:00,0.3,西北西,1,南西,0.2,90.7,0,0,0,0,0,0,1015.1,1029.9
108,2021-01-04T01:47:00,0.3,西,1,南西,0.2,90.9,0,0,0,0,0,0,1015.1,1029.9
109,2021-01-04T01:48:00,0.3,西,1,南西,0.1,90.7,0,0,0,0,0,0,1015,1029.8
110,2021-01-04T01:49:00,0.3,西南西,1,南西,0.1,90.5,0,0,0,0,0,0,1015.1,1029.9
111,2021-01-04T01:50:00,0.3,西南西,1,南西,0,90.6,0,0,0,0,0,0,1015.1,1029.9
112,2021-01-04T01:51:00,0.3,南西,1,南西,0,90.5,0,0,0,0,0,0,1015.1,1029.9
113,2021-01-04T01:52:00,0.3,南西,1.1,西北西,0.2,90.6,0,0,0,0,0,0,1015.1,1029.9
114,2021-01-04T01:53:00,0.3,南西,1.1,西北西,0.2,91,0,0,0,0,0,0,1015.1,1029.9
115,2021-01-04T01:54:00,0.3,南西,1.1,西北西,0,90.3,0,0,0,0,0,0,1015.1,1029.9
116,2021-01-04T01:55:00,0.3,南西,1.1,西北西,0,90.1,0,0,0,0,0,0,1015.1,1029.9
117,2021-01-04T01:56:00,0.3,南西,1.1,西北西,0,90.2,0,0,0,0,0,0,1015.1,1029.9
118,2021-01-04T01:57:00,0.3,南西,1.1,西北西,0.1,90.6,0,0,0,0,0,0,1015.1,1029.9
119,2021-01-04T01:58:00,0.4,南西,1.1,西北西,0,90.5,0,0,0,0,0,0,1015.1,1029.9
120,2021-01-04T01:59:00,0.4,西南西,1.1,西北西,0.1,90.5,0,0,0,0,0,0,1015.1,1029.9
121,2021-01-04T02:00:00,0.4,南西,1.1,西北西,0.2,91.1,0,0,0,0,0,0,1015.2,1030
122,2021-01-04T02:01:00,0.4,南西,1.1,西北西,0,90.6,0,0,0,0,0,0,1015.2,1030
123,2021-01-04T02:02:00,0.3,南西,1,南西,0.2,90.8,0,0,0,0,0,0,1015.1,1029.9
124,2021-01-04T02:03:00,0.3,南西,1,南西,0.1,90.9,0,0,0,0,0,0,1015.1,1029.9
125,2021-01-04T02:04:00,0.3,西南西,1,南西,0.2,90.7,0,0,0,0,0,0,1015.2,1030
126,2021-01-04T02:05:00,0.2,静穏,1,南西,0.3,91,0,0,0,0,0,0,1015.1,1029.9
127,2021-01-04T02:06:00,0.2,静穏,1,南西,0.3,91,0,0,0,0,0,0,1015.2,1030
128,2021-01-04T02:07:00,0.2,静穏,1,南西,0.2,90.8,0,0,0,0,0,0,1015.2,1030
129,2021-01-04T02:08:00,0.2,静穏,1,南西,0.1,90.3,0,0,0,0,0,0,1015.2,1030
130,2021-01-04T02:09:00,0.2,静穏,1,南西,0,90,0,0,0,0,0,0,1015.2,1030
131,2021-01-04T02:10:00,0.3,北北西,1.6,西,0,89.6,0,0,0,0,0,0,1015.2,1030
132,2021-01-04T02:11:00,0.4,北西,1.7,西南西,0,89.6,0,0,0,0,0,0,1015.2,1030
133,2021-01-04T02:12:00,0.5,北西,1.7,西南西,0,89.8,0,0,0,0,0,0,1015.2,1030
134,2021-01-04T02:13:00,0.6,西北西,1.9,西,0,90,0,0,0,0,0,0,1015.2,1030
135,2021-01-04T02:14:00,0.7,西北西,1.9,西,0,90.5,0,0,0,0,0,0,1015.2,1030
136,2021-01-04T02:15:00,0.9,西,2.1,西,0,90.3,0,0,0,0,0,0,1015.2,1030
137,2021-01-04T02:16:00,1.1,西,2.3,西,0,90.3,0,0,0,0,0,0,1015.2,1030
138,2021-01-04T02:17:00,1.2,西,2.4,西,0,90.4,0,0,0,0,0,0,1015.2,1030
139,2021-01-04T02:18:00,1.4,西,2.4,西,0,90.2,0,0,0,0,0,0,1015.2,1030
140,2021-01-04T02:19:00,1.4,西,2.4,西,0,90.3,0,0,0,0,0,0,1015.2,1030
141,2021-01-04T02:20:00,1.4,西,2.4,西,0,90.8,0,0,0,0,0,0,1015.2,1030
142,2021-01-04T02:21:00,1.3,西,2.4,西,0,91,0,0,0,0,0,0,1015.3,1030.1
143,2021-01-04T02:22:00,1.2,西南西,2.4,西,0,90.7,0,0,0,0,0,0,1015.3,1030.1
144,2021-01-04T02:23:00,1.1,西南西,2.4,西,0,90.5,0,0,0,0,0,0,1015.3,1030.1
145,2021-01-04T02:24:00,1,南西,2.4,西,0,90.9,0,0,0,0,0,0,1015.3,1030.1
146,2021-01-04T02:25:00,0.8,南西,2.4,西,0.1,91.1,0,0,0,0,0,0,1015.4,1030.2
147,2021-01-04T02:26:00,0.7,南西,2.4,西,0.1,91,0,0,0,0,0,0,1015.4,1030.2
148,2021-01-04T02:27:00,0.6,南西,2.3,西,0,90.8,0,0,0,0,0,0,1015.4,1030.2
149,2021-01-04T02:28:00,0.4,南西,1.7,西,0.1,90.8,0,0,0,0,0,0,1015.4,1030.2
150,2021-01-04T02:29:00,0.4,西南西,1.3,西北西,0,90.8,0,0,0,0,0,0,1015.4,1030.2
151,2021-01-04T02:30:00,0.5,西南西,2,西,0,90.6,0,0,0,0,0,0,1015.5,1030.3
152,2021-01-04T02:31:00,0.6,西,2.7,西,0,90.6,0,0,0,0,0,0,1015.5,1030.3
153,2021-01-04T02:32:00,0.8,西,2.7,西,0,90.4,0,0,0,0,0,0,1015.5,1030.3
154,2021-01-04T02:33:00,0.9,西,2.7,西,-0.1,90.3,0,0,0,0,0,0,1015.5,1030.3
155,2021-01-04T02:34:00,0.9,西,2.7,西,-0.1,90.1,0,0,0,0,0,0,1015.4,1030.2
156,2021-01-04T02:35:00,0.9,西,2.7,西,0,90.2,0,0,0,0,0,0,1015.4,1030.2
157,2021-01-04T02:36:00,0.9,西,2.7,西,0,90.9,0,0,0,0,0,0,1015.4,1030.2
158,2021-01-04T02:37:00,0.9,西,2.7,西,0,90.7,0,0,0,0,0,0,1015.4,1030.2
159,2021-01-04T02:38:00,0.9,西南西,2.7,西,0,90.7,0,0,0,0,0,0,1015.4,1030.2
160,2021-01-04T02:39:00,0.9,西南西,2.7,西,0,91,0,0,0,0,0,0,1015.4,1030.2
161,2021-01-04T02:40:00,0.7,西南西,2.7,西,0,91.2,0,0,0,0,0,0,1015.4,1030.2
162,2021-01-04T02:41:00,0.6,南西,2.4,西,0,90.8,0,0,0,0,0,0,1015.4,1030.2
163,2021-01-04T02:42:00,0.4,南西,2.1,西,-0.1,90.7,0,0,0,0,0,0,1015.4,1030.2
164,2021-01-04T02:43:00,0.3,南南西,1.4,西南西,-0.1,90.7,0,0,0,0,0,0,1015.4,1030.2
165,2021-01-04T02:44:00,0.2,静穏,0.9,南南東,0,91,0,0,0,0,0,0,1015.4,1030.2
166,2021-01-04T02:45:00,0.2,静穏,0.9,南南東,0,91.1,0,0,0,0,0,0,1015.4,1030.2
167,2021-01-04T02:46:00,0.2,静穏,1,南西,0.2,91.6,0,0,0,0,0,0,1015.4,1030.2
168,2021-01-04T02:47:00,0.2,静穏,1,南西,0,91.8,0,0,0,0,0,0,1015.4,1030.2
169,2021-01-04T02:48:00,0.2,静穏,1,南西,0,91.4,0,0,0,0,0,0,1015.4,1030.2
170,2021-01-04T02:49:00,0.2,静穏,1,南西,0,91.4,0,0,0,0,0,0,1015.4,1030.2
171,2021-01-04T02:50:00,0.2,静穏,1,南西,0,91.3,0,0,0,0,0,0,1015.4,1030.2
172,2021-01-04T02:51:00,0.2,静穏,1,南西,0,91.3,0,0,0,0,0,0,1015.4,1030.2
173,2021-01-04T02:52:00,0.2,静穏,1,南西,0,91.3,0,0,0,0,0,0,1015.3,1030.1
174,2021-01-04T02:53:00,0.2,静穏,1.2,南西,0,91.3,0,0,0,0,0,0,1015.4,1030.2
175,2021-01-04T02:54:00,0.3,南西,1.2,南西,0.2,91.5,0,0,0,0,0,0,1015.4,1030.2
176,2021-01-04T02:55:00,0.3,南西,1.2,南西,0.1,91.8,0,0,0,0,0,0,1015.4,1030.2
177,2021-01-04T02:56:00,0.3,南南西,1.2,南西,0,91,0,0,0,0,0,0,1015.4,1030.2
178,2021-01-04T02:57:00,0.3,南南西,1.2,南西,0.1,91,0,0,0,0,0,0,1015.3,1030.1
179,2021-01-04T02:58:00,0.3,南南西,1.2,南西,0.1,91.3,0,0,0,0,0,0,1015.4,1030.2
180,2021-01-04T02:59:00,0.3,南南西,1.2,南西,0.1,91,0,0,0,0,0,0,1015.4,1030.2
181,2021-01-04T03:00:00,0.3,南南西,1.2,南西,0,90.9,0,0,0,0,0,0,1015.4,1030.2
182,2021-01-04T03:01:00,0.3,南南西,1.2,南西,0.1,90.6,0,0,0,0,0,0,1015.4,1030.2
183,2021-01-04T03:02:00,0.3,南南西,1.2,南西,0.2,90.8,0,0,0,0,0,0,1015.4,1030.2
184,2021-01-04T03:03:00,0.2,静穏,1.2,南南西,0.1,90.6,0,0,0,0,0,0,1015.3,1030.1
185,2021-01-04T03:04:00,0.2,静穏,1.2,南南西,0,90.1,0,0,0,0,0,0,1015.4,1030.2
186,2021-01-04T03:05:00,0.2,静穏,1.2,南南西,0,89.8,0,0,0,0,0,0,1015.3,1030.1
187,2021-01-04T03:06:00,0.2,静穏,1.2,南南西,0,89.8,0,0,0,0,0,0,1015.4,1030.2
188,2021-01-04T03:07:00,0.1,静穏,0.9,南,0,89.9,0,0,0,0,0,0,1015.4,1030.2
189,2021-01-04T03:08:00,0.1,静穏,0.9,南,0,90,0,0,0,0,0,0,1015.4,1030.2
190,2021-01-04T03:09:00,0.1,静穏,0.9,南,0,90.1,0,0,0,0,0,0,1015.4,1030.2
191,2021-01-04T03:10:00,0.2,静穏,0.9,南,-0.2,90,0,0,0,0,0,0,1015.4,1030.2
192,2021-01-04T03:11:00,0.2,静穏,0.9,南,-0.2,89.8,0,0,0,0,0,0,1015.4,1030.2
193,2021-01-04T03:12:00,0.2,静穏,0.9,南,-0.1,90,0,0,0,0,0,0,1015.4,1030.2
194,2021-01-04T03:13:00,0.2,静穏,0.9,南,0,90.7,0,0,0,0,0,0,1015.4,1030.2
195,2021-01-04T03:14:00,0.2,静穏,0.9,南,0,91,0,0,0,0,0,0,1015.4,1030.2
196,2021-01-04T03:15:00,0.2,静穏,0.9,南,0,90.5,0,0,0,0,0,0,1015.4,1030.2
197,2021-01-04T03:16:00,0.2,静穏,0.9,南,0,90.6,0,0,0,0,0,0,1015.4,1030.2
198,2021-01-04T03:17:00,0.2,静穏,0.8,南西,-0.1,90.4,0,0,0,0,0,0,1015.5,1030.3
199,2021-01-04T03:18:00,0.2,静穏,0.8,南西,-0.2,90.4,0,0,0,0,0,0,1015.5,1030.3
200,2021-01-04T03:19:00,0.1,静穏,0.6,南南西,-0.3,90.1,0,0,0,0,0,0,1015.5,1030.3
201,2021-01-04T03:20:00,0.1,静穏,0.5,西,-0.2,90.2,0,0,0,0,0,0,1015.4,1030.2
202,2021-01-04T03:21:00,0.1,静穏,0.5,西,-0.2,90.5,0,0,0,0,0,0,1015.5,1030.3
203,2021-01-04T03:22:00,0.1,静穏,0.5,西,-0.1,90.7,0,0,0,0,0,0,1015.4,1030.2
204,2021-01-04T03:23:00,0.1,静穏,0.6,西南西,0,91.1,0,0,0,0,0,0,1015.4,1030.2
205,2021-01-04T03:24:00,0.1,静穏,0.6,西南西,0,91.4,0,0,0,0,0,0,1015.4,1030.2
206,2021-01-04T03:25:00,0.2,静穏,0.6,西南西,0,91.1,0,0,0,0,0,0,1015.5,1030.3
207,2021-01-04T03:26:00,0.2,静穏,0.6,西南西,-0.1,91.1,0,0,0,0,0,0,1015.5,1030.3
208,2021-01-04T03:27:00,0.2,静穏,0.6,西南西,-0.2,90.8,0,0,0,0,0,0,1015.4,1030.2
209,2021-01-04T03:28:00,0.2,静穏,0.6,西南西,-0.2,90.7,0,0,0,0,0,0,1015.5,1030.3
210,2021-01-04T03:29:00,0.3,西北西,0.6,西南西,-0.3,90.6,0,0,0,0,0,0,1015.5,1030.3
211,2021-01-04T03:30:00,0.3,西,0.6,西南西,-0.3,90.7,0,0,0,0,0,0,1015.5,1030.3
212,2021-01-04T03:31:00,0.3,西,0.8,西,-0.2,91,0,0,0,0,0,0,1015.5,1030.3
213,2021-01-04T03:32:00,0.4,西,1.1,西,-0.2,91,0,0,0,0,0,0,1015.5,1030.3
214,2021-01-04T03:33:00,0.5,西,1.1,西,-0.2,91.2,0,0,0,0,0,0,1015.5,1030.3
215,2021-01-04T03:34:00,0.5,西,1.1,西,-0.1,91.4,0,0,0,0,0,0,1015.5,1030.3
216,2021-01-04T03:35:00,0.5,西,1.1,西,0,91.6,0,0,0,0,0,0,1015.5,1030.3
217,2021-01-04T03:36:00,0.5,西,1.1,西,-0.1,91.5,0,0,0,0,0,0,1015.5,1030.3
218,2021-01-04T03:37:00,0.6,西,1.2,西北西,0,91.5,0,0,0,0,0,0,1015.5,1030.3
219,2021-01-04T03:38:00,0.6,西,1.2,西北西,-0.1,91.5,0,0,0,0,0,0,1015.5,1030.3
220,2021-01-04T03:39:00,0.6,西,1.2,西北西,-0.1,91.3,0,0,0,0,0,0,1015.5,1030.3
221,2021-01-04T03:40:00,0.7,西,1.2,西北西,0,91.7,0,0,0,0,0,0,1015.5,1030.3
222,2021-01-04T03:41:00,0.7,西北西,1.2,西北西,0,91.7,0,0,0,0,0,0,1015.4,1030.2
223,2021-01-04T03:42:00,0.7,西北西,1.2,西北西,0,91.5,0,0,0,0,0,0,1015.4,1030.2
224,2021-01-04T03:43:00,0.7,西北西,1.2,西北西,0,91.5,0,0,0,0,0,0,1015.3,1030.1
225,2021-01-04T03:44:00,0.7,西北西,1.2,西北西,0,91.5,0,0,0,0,0,0,1015.3,1030.1
226,2021-01-04T03:45:00,0.8,西北西,1.2,西北西,0,91.4,0,0,0,0,0,0,1015.3,1030.1
227,2021-01-04T03:46:00,0.8,西北西,1.2,西北西,0,91.5,0,0,0,0,0,0,1015.3,1030.1
228,2021-01-04T03:47:00,0.7,西北西,1.2,西北西,-0.1,91.2,0,0,0,0,0,0,1015.3,1030.1
229,2021-01-04T03:48:00,0.6,西北西,1.2,西北西,-0.1,90.8,0,0,0,0,0,0,1015.3,1030.1
230,2021-01-04T03:49:00,0.6,西北西,1.2,西北西,-0.2,90.7,0,0,0,0,0,0,1015.2,1030
231,2021-01-04T03:50:00,0.5,西北西,1.2,西北西,-0.3,90.5,0,0,0,0,0,0,1015.2,1030
232,2021-01-04T03:51:00,0.5,西北西,1.2,西北西,-0.3,90.4,0,0,0,0,0,0,1015.2,1030
233,2021-01-04T03:52:00,0.4,西北西,1.2,西北西,-0.3,90.6,0,0,0,0,0,0,1015.2,1030
234,2021-01-04T03:53:00,0.3,北西,1,西,-0.3,90.5,0,0,0,0,0,0,1015.2,1030
235,2021-01-04T03:54:00,0.3,北西,0.9,西,-0.3,90.7,0,0,0,0,0,0,1015.1,1029.9
236,2021-01-04T03:55:00,0.2,静穏,0.7,西北西,-0.3,90.9,0,0,0,0,0,0,1015.2,1030
237,2021-01-04T03:56:00,0.2,静穏,0.8,西,-0.3,90.9,0,0,0,0,0,0,1015.2,1030
238,2021-01-04T03:57:00,0.3,北西,0.8,西,-0.3,91.1,0,0,0,0,0,0,1015.2,1030
239,2021-01-04T03:58:00,0.3,西北西,0.8,西,-0.3,91.1,0,0,0,0,0,0,1015.2,1030
240,2021-01-04T03:59:00,0.4,西北西,0.8,西,-0.3,91.1,0,0,0,0,0,0,1015.2,1030
241,2021-01-04T04:00:00,0.4,西北西,0.8,西,-0.3,91.2,0,0,0,0,0,0,1015.2,1030
242,2021-01-04T04:01:00,0.5,西北西,0.8,西,-0.2,91.5,0,0,0,0,0,0,1015.1,1029.9
243,2021-01-04T04:02:00,0.5,西北西,0.8,西,-0.2,91.4,0,0,0,0,0,0,1015.1,1029.9
244,2021-01-04T04:03:00,0.5,西,0.8,西,-0.3,91.5,0,0,0,0,0,0,1015.2,1030
245,2021-01-04T04:04:00,0.5,西,0.8,西,-0.3,91.2,0,0,0,0,0,0,1015.2,1030
246,2021-01-04T04:05:00,0.5,西,0.8,西,-0.3,91.2,0,0,0,0,0,0,1015.2,1030
247,2021-01-04T04:06:00,0.5,西,0.8,西南西,-0.3,91.5,0,0,0,0,0,0,1015.2,1030
248,2021-01-04T04:07:00,0.4,西,0.8,西南西,-0.2,91.7,0,0,0,0,0,0,1015.2,1030
249,2021-01-04T04:08:00,0.4,西,0.8,西南西,-0.3,91.6,0,0,0,0,0,0,1015.2,1030
250,2021-01-04T04:09:00,0.3,西,0.8,西南西,-0.3,91.4,0,0,0,0,0,0,1015.2,1030
251,2021-01-04T04:10:00,0.3,西,0.8,西南西,-0.1,91.9,0,0,0,0,0,0,1015.1,1029.9
252,2021-01-04T04:11:00,0.3,西,0.8,西南西,-0.3,91.7,0,0,0,0,0,0,1015.1,1029.9
253,2021-01-04T04:12:00,0.3,西,0.8,西南西,-0.3,91.6,0,0,0,0,0,0,1015.1,1029.9
254,2021-01-04T04:13:00,0.3,西,0.8,西北西,-0.4,91.4,0,0,0,0,0,0,1015.1,1029.9
255,2021-01-04T04:14:00,0.3,西,0.8,西北西,-0.3,91.5,0,0,0,0,0,0,1015.1,1029.9
256,2021-01-04T04:15:00,0.3,西,0.8,西北西,-0.1,92.2,0,0,0,0,0,0,1015.1,1029.9
257,2021-01-04T04:16:00,0.4,西,0.8,西北西,-0.4,91.7,0,0,0,0,0,0,1015,1029.8
258,2021-01-04T04:17:00,0.4,西南西,0.8,西北西,-0.3,91.5,0,0,0,0,0,0,1015,1029.8
259,2021-01-04T04:18:00,0.3,西南西,0.8,西北西,-0.2,92,0,0,0,0,0,0,1015,1029.8
260,2021-01-04T04:19:00,0.3,西南西,0.8,西北西,-0.3,91.9,0,0,0,0,0,0,1014.9,1029.7
261,2021-01-04T04:20:00,0.3,南西,0.8,西北西,-0.2,91.9,0,0,0,0,0,0,1015,1029.8
262,2021-01-04T04:21:00,0.2,静穏,0.8,西北西,-0.1,92.2,0,0,0,0,0,0,1015,1029.8
263,2021-01-04T04:22:00,0.2,静穏,0.8,西北西,-0.3,91.8,0,0,0,0,0,0,1015,1029.8
264,2021-01-04T04:23:00,0.2,静穏,0.7,北北東,-0.4,91.5,0,0,0,0,0,0,1015,1029.8
265,2021-01-04T04:24:00,0.3,東北東,0.7,北北東,-0.4,91.3,0,0,0,0,0,0,1015,1029.8
266,2021-01-04T04:25:00,0.2,静穏,0.7,北北東,-0.4,91.5,0,0,0,0,0,0,1015.1,1029.9
267,2021-01-04T04:26:00,0.2,静穏,0.7,北北東,-0.4,91.5,0,0,0,0,0,0,1015.1,1029.9
268,2021-01-04T04:27:00,0.2,静穏,0.7,北北東,-0.4,91.6,0,0,0,0,0,0,1015,1029.8
269,2021-01-04T04:28:00,0.2,静穏,0.7,北北東,-0.4,91.5,0,0,0,0,0,0,1015,1029.8
270,2021-01-04T04:29:00,0.2,静穏,0.7,北北東,-0.5,91.4,0,0,0,0,0,0,1015,1029.8
271,2021-01-04T04:30:00,0.2,静穏,0.7,北北東,-0.6,91.1,0,0,0,0,0,0,1015,1029.8
272,2021-01-04T04:31:00,0.2,静穏,0.7,北北東,-0.5,91.3,0,0,0,0,0,0,1015.1,1029.9
273,2021-01-04T04:32:00,0.2,静穏,0.7,北北東,-0.6,91.5,0,0,0,0,0,0,1015.1,1029.9
274,2021-01-04T04:33:00,0.1,静穏,0.6,北,-0.4,91.8,0,0,0,0,0,0,1015.1,1029.9
275,2021-01-04T04:34:00,0.1,静穏,0.6,西南西,-0.5,91.9,0,0,0,0,0,0,1015.1,1029.9
276,2021-01-04T04:35:00,0.1,静穏,0.6,西南西,-0.4,92,0,0,0,0,0,0,1015.1,1029.9
277,2021-01-04T04:36:00,0.1,静穏,0.6,西南西,-0.5,92.1,0,0,0,0,0,0,1015.1,1029.9
278,2021-01-04T04:37:00,0.1,静穏,0.6,西南西,-0.6,91.6,0,0,0,0,0,0,1015.1,1029.9
279,2021-01-04T04:38:00,0.1,静穏,0.6,西南西,-0.5,91.7,0,0,0,0,0,0,1015.1,1029.9
280,2021-01-04T04:39:00,0.1,静穏,0.6,西南西,-0.6,91.8,0,0,0,0,0,0,1015.1,1029.9
281,2021-01-04T04:40:00,0.1,静穏,0.6,西南西,-0.6,91.8,0,0,0,0,0,0,1015.1,1029.9
282,2021-01-04T04:41:00,0.1,静穏,0.6,西南西,-0.6,91.8,0,0,0,0,0,0,1015.1,1029.9
283,2021-01-04T04:42:00,0.1,静穏,0.6,西南西,-0.5,92.1,0,0,0,0,0,0,1015.1,1029.9
284,2021-01-04T04:43:00,0.1,静穏,0.6,西南西,-0.6,92.1,0,0,0,0,0,0,1015.1,1029.9
285,2021-01-04T04:44:00,0.1,静穏,0.4,西,-0.6,92,0,0,0,0,0,0,1015.1,1029.9
286,2021-01-04T04:45:00,0,静穏,0.3,西,-0.6,92,0,0,0,0,0,0,1015.1,1029.9
287,2021-01-04T04:46:00,0,静穏,0.3,西,-0.5,92.2,0,0,0,0,0,0,1015.1,1029.9
288,2021-01-04T04:47:00,0,静穏,0.5,西,-0.4,92.4,0,0,0,0,0,0,1015.2,1030
289,2021-01-04T04:48:00,0,静穏,0.5,西,-0.4,92.7,0,0,0,0,0,0,1015.2,1030
290,2021-01-04T04:49:00,0.1,静穏,0.5,西,-0.4,92.5,0,0,0,0,0,0,1015.1,1029.9
291,2021-01-04T04:50:00,0.1,静穏,0.5,西,-0.4,92.5,0,0,0,0,0,0,1015.2,1030
292,2021-01-04T04:51:00,0.1,静穏,0.6,南南西,-0.4,92.4,0,0,0,0,0,0,1015.2,1030
293,2021-01-04T04:52:00,0.1,静穏,0.6,南南西,-0.6,92.1,0,0,0,0,0,0,1015.2,1030
294,2021-01-04T04:53:00,0.1,静穏,0.6,南南西,-0.6,91.9,0,0,0,0,0,0,1015.2,1030
295,2021-01-04T04:54:00,0.2,静穏,0.6,南南西,-0.6,92,0,0,0,0,0,0,1015.1,1029.9
296,2021-01-04T04:55:00,0.2,静穏,0.6,南南西,-0.6,92.1,0,0,0,0,0,0,1015.2,1030
297,2021-01-04T04:56:00,0.2,静穏,0.6,南南西,-0.5,92.1,0,0,0,0,0,0,1015.2,1030
298,2021-01-04T04:57:00,0.2,静穏,0.6,南南西,-0.6,92.3,0,0,0,0,0,0,1015.2,1030
299,2021-01-04T04:58:00,0.1,静穏,0.6,南南西,-0.6,92.2,0,0,0,0,0,0,1015.2,1030
300,2021-01-04T04:59:00,0.2,静穏,0.8,南南西,-0.6,92.2,0,0,0,0,0,0,1015.2,1030
301,2021-01-04T05:00:00,0.2,静穏,0.8,南南西,-0.7,92.1,0,0,0,0,0,0,1015.1,1029.9
302,2021-01-04T05:01:00,0.2,静穏,0.8,南南西,-0.7,91.9,0,0,0,0,0,0,1015.1,1029.9
303,2021-01-04T05:02:00,0.2,静穏,0.8,南南西,-0.8,92,0,0,0,0,0,0,1015.1,1029.9
304,2021-01-04T05:03:00,0.2,静穏,0.8,南南西,-0.6,92.2,0,0,0,0,0,0,1015.1,1029.9
305,2021-01-04T05:04:00,0.2,静穏,0.8,南南西,-0.5,92.5,0,0,0,0,0,0,1015.1,1029.9
306,2021-01-04T05:05:00,0.2,静穏,0.8,南南西,-0.4,92.8,0,0,0,0,0,0,1015.1,1029.9
307,2021-01-04T05:06:00,0.2,静穏,0.8,南南西,-0.6,92.8,0,0,0,0,0,0,1015.1,1029.9
308,2021-01-04T05:07:00,0.2,静穏,0.8,南南西,-0.6,92.4,0,0,0,0,0,0,1015.1,1029.9
309,2021-01-04T05:08:00,0.2,静穏,0.8,南南西,-0.7,92.4,0,0,0,0,0,0,1015.1,1029.9
310,2021-01-04T05:09:00,0.2,静穏,0.8,西北西,-0.7,92.3,0,0,0,0,0,0,1015.1,1029.9
311,2021-01-04T05:10:00,0.3,西南西,0.8,西北西,-0.8,92.1,0,0,0,0,0,0,1015.2,1030
312,2021-01-04T05:11:00,0.3,西,0.8,西北西,-0.9,91.8,0,0,0,0,0,0,1015.1,1030
313,2021-01-04T05:12:00,0.3,西,0.8,西北西,-0.8,92.1,0,0,0,0,0,0,1015.2,1030
314,2021-01-04T05:13:00,0.3,西北西,0.8,西北西,-0.8,92.2,0,0,0,0,0,0,1015.2,1030
315,2021-01-04T05:14:00,0.3,西北西,0.8,西北西,-0.5,92.8,0,0,0,0,0,0,1015.2,1030
316,2021-01-04T05:15:00,0.3,西北西,0.8,西北西,-0.6,93.3,0,0,0,0,0,0,1015.2,1030
317,2021-01-04T05:16:00,0.4,西北西,0.8,西北西,-0.7,92.7,0,0,0,0,0,0,1015.2,1030
318,2021-01-04T05:17:00,0.4,西北西,0.8,西北西,-0.7,92.4,0,0,0,0,0,0,1015.3,1030.1
319,2021-01-04T05:18:00,0.5,西北西,0.8,西北西,-0.8,92.4,0,0,0,0,0,0,1015.3,1030.1
320,2021-01-04T05:19:00,0.4,西北西,0.8,西,-1.1,92,0,0,0,0,0,0,1015.3,1030.2
321,2021-01-04T05:20:00,0.4,西北西,0.8,西,-0.9,91.7,0,0,0,0,0,0,1015.3,1030.2
322,2021-01-04T05:21:00,0.4,西北西,0.8,西,-0.9,92.4,0,0,0,0,0,0,1015.3,1030.2
323,2021-01-04T05:22:00,0.4,北西,0.8,西,-0.9,92.4,0,0,0,0,0,0,1015.4,1030.3
324,2021-01-04T05:23:00,0.3,北西,0.8,西,-0.9,92.5,0,0,0,0,0,0,1015.4,1030.3
325,2021-01-04T05:24:00,0.3,北西,0.8,西,-0.9,92.7,0,0,0,0,0,0,1015.4,1030.3
326,2021-01-04T05:25:00,0.3,北北西,0.8,西,-0.9,92.6,0,0,0,0,0,0,1015.5,1030.4
327,2021-01-04T05:26:00,0.3,北北西,0.7,西北西,-0.9,92.6,0,0,0,0,0,0,1015.4,1030.3
328,2021-01-04T05:27:00,0.2,静穏,0.6,北西,-0.8,92.7,0,0,0,0,0,0,1015.4,1030.3
329,2021-01-04T05:28:00,0.2,静穏,0.5,北北東,-0.8,93,0,0,0,0,0,0,1015.4,1030.3
330,2021-01-04T05:29:00,0.2,静穏,0.5,北北東,-0.8,93,0,0,0,0,0,0,1015.5,1030.4
331,2021-01-04T05:30:00,0.2,静穏,0.5,北北東,-0.7,93,0,0,0,0,0,0,1015.5,1030.3
332,2021-01-04T05:31:00,0.2,静穏,0.5,北北東,-0.8,92.9,0,0,0,0,0,0,1015.5,1030.4